Regional Weather Roundup
Issued by NWS Charleston, SC

Current Version | Previous Version | Graphics & Text | Print | Product List | Glossary On
Versions: 1 2 3 4 5 6 7 8 9 10 11 12 13 14 15 16 17 18 19 20 21 22 23 24 25 26 27 28 29 30 31 32 33 34 35 36 37 38 39 40 41 42 43 44 45 46 47 48 49 50
598
ASUS42 KCHS 261813
RWRCHS

REGIONAL WEATHER ROUNDUP
NATIONAL WEATHER SERVICE CHARLESTON SC
200 PM EDT THU MAY 26 2016

NOTE: "FAIR" INDICATES FEW OR NO CLOUDS BELOW 12,000 FEET WITH NO
SIGNIFICANT WEATHER AND/OR OBSTRUCTIONS TO VISIBILITY.

NOT ALL STATIONS ARE QUALITY CONTROLLED. USE DATA WITH CAUTION...
ESPECIALLY DEWPOINT OBSERVATIONS.

SCZ027-030-031-034>040-042>050-261900-
...SOUTHEAST SOUTH CAROLINA...

CITY           SKY/WX    TMP DP  RH WIND       PRES   REMARKS
N CHARLESTON   MOSUNNY   84  62  47 S7        30.17F
6HR MIN TEMP:  74; 6HR MAX TEMP:  87;

WATERFRONT PRK   N/A     79  66  64 S6        30.16F
MOUNT PLEASANT FAIR      82  66  57 S9        30.18F
JOHNS ISLAND   FAIR      82  64  54 SE8       30.19F
PINOPOLIS      NOT AVBL
MONCKS CORNER  MOCLDY    81  55  41 S8        30.16F
SUMMERVILLE    FAIR      88  63  42 SW5       30.17F
BEAUFORT MCAS  MOSUNNY   85  65  51 SE3       30.18F
BEAUFORT ARPT  FAIR      82  63  51 SE7       30.17F
HILTON HEAD IS MOSUNNY   86  66  51 S8        30.20F
WALTERBORO     MOCLDY    88  59  37 E3        30.17F
ALLENDALE      CLOUDY    84  64  51 VRB3      30.16F

...SOUTHERN MIDLANDS AND PEE DEE...

CITY           SKY/WX    TMP DP  RH WIND       PRES   REMARKS
GEORGETOWN     FAIR      81  63  54 S7        30.19F
KINGSTREE      MOCLDY    84  61  45 S7        30.16F
ORANGEBURG     SUNNY     86  62  44 S9        30.16F
6HR MIN TEMP:  67; 6HR MAX TEMP:  87;

BARNWELL       MOCLDY    88  63  42 CALM      30.17F
AIKEN          FAIR      86  59  39 S6        30.19F
MANNING        FAIR      82  63  51 S5        30.17F
COLUMBIA       PTSUNNY   87  58  37 SW7       30.15F
6HR MIN TEMP:  71; 6HR MAX TEMP:  89;

SUMTER         MOSUNNY   87  62  42 VRB5      30.14F
6HR MIN TEMP:  71; 6HR MAX TEMP:  87;

FLORENCE       MOSUNNY   87  62  43 S9        30.16F
6HR MIN TEMP:  70; 6HR MAX TEMP:  87;

MYRTLE BEACH   MOSUNNY   82  63  51 S13       30.20F
N MYRTLE BEACH MOSUNNY   80  68  66 S14       30.18F
6HR MIN TEMP:  75; 6HR MAX TEMP:  80;


$$

GAZ063-065-086>088-099>101-113>116-118-119-134>141-150-261900-
...SOUTHEAST GEORGIA...

CITY           SKY/WX    TMP DP  RH WIND       PRES   REMARKS
SAVANNAH ARPT  MOSUNNY   87  63  44 SE13      30.17F
6HR MIN TEMP:  73; 6HR MAX TEMP:  87;

HUNTER AAF     MOSUNNY   83  66  56 SE9       30.16F
6HR MIN TEMP:  74; 6HR MAX TEMP:  84;

FORT STEWART   PTSUNNY   85  62  45 VRB1      30.15F
6HR MIN TEMP:  70; 6HR MAX TEMP:  86;

STATESBORO     MOSUNNY   87  66  49 S5        30.17F
SYLVANIA       CLOUDY    87  61  42 SE5       30.18F
CLAXTON        CLOUDY    85  65  52 CALM      30.17F

...CSRA...CENTRAL AND FAR SOUTHEAST GEORGIA...

CITY           SKY/WX    TMP DP  RH WIND       PRES   REMARKS
THOMSON        CLOUDY    88  65  46 SE5       30.19F HX  90
AUGUSTA-BUSH   SUNNY     88  61  40 S10       30.14F
6HR MIN TEMP:  66; 6HR MAX TEMP:  88;

AUGUSTA-DANIEL MOSUNNY   88  59  37 VRB3      30.16F
SWAINSBORO     FAIR      86  55  35 E3        30.17F
VIDALIA        SUNNY     86  59  39 S5        30.17F
EASTMAN        FAIR      87  63  44 N3        30.18F
HAZLEHURST     FAIR      88  57  35 CALM      30.15F
ALMA           MOSUNNY   85  61  44 SE3       30.16F
6HR MIN TEMP:  68; 6HR MAX TEMP:  86;

WAYCROSS       PTSUNNY   85  61  43 SE7       30.16F
JESUP          MOCLDY    82  59  44 CALM      30.17F
BAXLEY         FAIR      88  59  37 SE3       30.16F
BRUNSWICK      SUNNY     88  59  37 SE9       30.18F
SAINT SIMONS   SUNNY     81  65  58 E6        30.18S
6HR MIN TEMP:  77; 6HR MAX TEMP:  81;


$$

SCZ027-028-034-036>038-045-046-048>050-GAZ119-141-261900-
...LAKE AND SUPPLEMENTAL COASTAL OBSERVATIONS...

STATION/POSITION TIME  TEMP    WIND        PRES    WAVE   SWELL
                       AIR SEA DIR/SP/G            HT/PER HT/PER/DIR
                 (UTC) (F)     (DEG/KT/KT) (MB)    (FT/S) (FT/S/D)
WINYAH BAY       1645   79     160/ 11     1022.0
LAKE MURRAY      1700   86     180/  2/  3 1021.0F
ACE BASIN NERRS  NOT AVBL
FORT PULASKI     1700   79 76  110/  8/ 11 1022.8F
SAPELO ISLAND    1700   84      80/  6     1022.0F

$$

ANZ835-935-AMZ111-154-330-350-352-354-370-450-454-472-261900-
...C-MAN AND BUOY OBSERVATIONS...

STATION/POSITION TIME  TEMP    WIND        PRES    WAVE   SWELL
                       AIR SEA DIR/SP/G            HT/PER HT/PER/DIR
                 (UTC) (F)     (DEG/KT/KT) (MB)    (FT/S) (FT/S/D)
BUOY 41004       1750   77 78  290/  2/  4 1022.4F   2/ 9   2/ 9
BUOY 41008       1750   76 78  100/  6/  8 1022.0F   2/ 9   2/120/ 9
FOLLY BEACH CMAN 1800   78     180/  7/  8 1022.5F
CAPERS NEARSHORE 1708   76 77  210/  8/  8 1022.7F
FRIPP NEARSHORE  1708   77 77  170/  6/  8 1022.1F


STATION/POSITION TIME  TEMP    WIND        PRES    WAVE   SWELL
                       AIR SEA DIR/SP/G            HT/PER HT/PER/DIR
                 (UTC) (F)     (DEG/KT/KT) (MB)    (FT/S) (FT/S/D)
5E ST. MARYS GA  NOT AVBL
FRYING PAN BUOY  1700   77 77  190/  4/  6 1022.5F
BUOY 41025       1750   74 71  210/  6/  8 1021.9F   2/ 9   2/120/ 9
CAPE LOOKOUT NC  1800   78     210/  9/ 13 1021.9F
BUOY 41002       1750   76 78   60/ 14/ 17 1022.1F   3/ 7   2/110/ 7
BUOY 41010       1720   76 79   60/ 10/ 12 1020.5F
ST AUGUSTINE FL  1800   77 80   80/  8/  9 1022.4F


$$




USA.gov is the U.S. government's official web portal to all federal, state and local government web resources and services.